Weather History for KAAT - July, 2013

Change the Weather History Date:

Tuesday, July 30, 2013

  Actual Average Record
Temperature  
Mean Temperature 65 °F 67 °F  
Max Temperature 89 °F 90 °F 104 °F (1966)
Min Temperature 41 °F 45 °F 34 °F (1993)
Degree Days  
Heating Degree Days 0 1  
Month to date heating degree days 4 40  
Since 1 June heating degree days 160 220  
Since 1 July heating degree days 4 40  
Cooling Degree Days 0 3  
Month to date cooling degree days 170 76  
Year to date cooling degree days 213 87  
Since 1 June cooling degree days 213 87  
Growing Degree Days 16 (Base 50)    
Moisture  
Dew Point 27 °F    
Average Humidity 35    
Maximum Humidity 62    
Minimum Humidity 7    
Precipitation  
Precipitation 0.00 in 0.01 in 0.32 in (1960)
Month to date precipitation T 0.32  
Year to date precipitation 4.43 8.76  
Sea Level Pressure  
Sea Level Pressure 30.05 in    
Wind  
Wind Speed 6 mph (West)    
Max Wind Speed 22 mph    
Max Gust Speed 29 mph    
Visibility 10 miles    
Events      
T = Trace of Precipitation, MM = Missing Value Source: NWS Daily Summary

Daily Weather History Graph

Daily Weather History Graph

Search for Another Location

Airport or City:

Trip Planner

Search our weather history database for the weather conditions in past years. The results will help you decide how hot, cold, wet, or windy it might be!

Date:

Astronomy

Jul. 30, 2013 Rise Set
Actual Time 5:55 AM PDT 8:21 PM PDT
Civil Twilight 5:23 AM PDT 8:52 PM PDT
Nautical Twilight 4:45 AM PDT 9:31 PM PDT
Astronomical Twilight 4:01 AM PDT 10:14 PM PDT
Moon 12:16 AM PDT (7/30) 2:46 PM PDT (7/30)
Length of Visible Light 15h 28m
Length of Day
14h 25m
Last Quarter, 40% of the Moon is Illuminated
Jul 30
Last Quarter
Aug 6
New
Aug 14
First Quarter
Aug 20
Full
Aug 28
Last Quarter

Hourly Weather History & Observations

Time (PDT) Temp. Windchill Dew Point Humidity Pressure Visibility Wind Dir Wind Speed Gust Speed Precip Events Conditions
12:55 AM 53.1 °F - 32.0 °F 45% 30.02 in 10.0 mi Calm Calm - N/A   Clear
1:55 AM 52.0 °F - 30.9 °F 45% 30.02 in 10.0 mi Calm Calm - N/A   Clear
2:55 AM 48.9 °F - 32.0 °F 52% 30.04 in 10.0 mi Calm Calm - N/A   Clear
3:55 AM 50.0 °F - 32.0 °F 50% 30.04 in 10.0 mi Calm Calm - N/A   Clear
4:55 AM 45.0 °F 43.5 °F 32.0 °F 60% 30.07 in 10.0 mi SE 3.5 mph - N/A   Clear
5:55 AM 44.1 °F - 32.0 °F 63% 30.09 in 8.0 mi Calm Calm - N/A   Clear
6:55 AM 50.0 °F - 33.1 °F 52% 30.10 in 9.0 mi Calm Calm - N/A   Clear
7:55 AM 57.0 °F - 35.1 °F 44% 30.10 in 9.0 mi Calm Calm - N/A   Clear
8:55 AM 66.0 °F - 34.0 °F 30% 30.08 in 10.0 mi Calm Calm - N/A   Clear
9:55 AM 73.0 °F - 32.0 °F 22% 30.07 in 10.0 mi SE 3.5 mph - N/A   Clear
10:55 AM 78.1 °F - 26.1 °F 15% 30.06 in 10.0 mi Variable 3.5 mph - N/A   Clear
11:55 AM 82.0 °F - 21.9 °F 11% 30.06 in 10.0 mi WNW 10.4 mph 18.4 mph N/A   Clear
12:55 PM 84.0 °F - 19.0 °F 9% 30.05 in 10.0 mi NW 10.4 mph 17.3 mph N/A   Clear
1:55 PM 84.9 °F - 16.0 °F 8% 30.03 in 10.0 mi West 11.5 mph 18.4 mph N/A   Clear
2:55 PM 87.1 °F - 19.9 °F 8% 30.03 in 10.0 mi NW 9.2 mph - N/A   Clear
3:55 PM 88.0 °F - 18.0 °F 8% 30.01 in 10.0 mi West 21.9 mph 26.5 mph N/A   Clear
4:55 PM 87.1 °F - 18.0 °F 8% 30.02 in 10.0 mi West 16.1 mph 24.2 mph N/A   Clear
5:55 PM 84.0 °F - 21.0 °F 10% 30.03 in 10.0 mi West 16.1 mph - N/A   Clear
6:55 PM 82.0 °F - 24.1 °F 12% 30.02 in 10.0 mi West 12.7 mph - N/A   Clear
7:55 PM 77.0 °F - 23.0 °F 13% 30.04 in 10.0 mi WSW 11.5 mph - N/A   Clear
8:55 PM 73.0 °F - 24.1 °F 16% 30.04 in 10.0 mi Variable 3.5 mph - N/A   Clear
9:55 PM 68.0 °F - 28.0 °F 22% 30.06 in 10.0 mi SSW 3.5 mph - N/A   Clear
10:55 PM 61.0 °F - 30.9 °F 32% 30.08 in 10.0 mi WSW 5.8 mph - N/A   Clear
11:55 PM 55.9 °F - 30.0 °F 37% 30.08 in 10.0 mi Calm Calm - N/A   Clear